Theta_e
293 293 293 293 293 293 293 293 293 293 293 294 294 293 294 294 294 294 294 295 295 295 294 294 294 294 294 293 293 293 292 291 290 290 290 291 291 291 291 292 292 292 293 293 294 295 296 297 297 298 298 299 298 298 298 298 299 299 299 299 300 301
293 293 292 292 292 292 292 292 292 292 292 292 292 292 292 292 292 293 292 293 293 293 293 293 293 293 293 293 293 292 291 291 290 290 289 290 290 290 291 291 291 291 291 292 292 293 295 295 296 297 297 297 296 296 296 296 297 297 297 297 298 299
292 292 293 292 292 292 292 292 292 292 292 291 291 291 291 291 291 292 291 291 291 291 291 291 291 291 291 291 291 291 290 290 291 290 290 290 289 290 290 290 290 290 290 291 291 292 294 294 294 294 294 294 294 294 294 294 295 295 296 296 296 297
291 291 291 291 291 290 290 291 291 291 291 291 291 291 290 290 290 290 290 290 290 290 289 289 290 290 290 290 290 290 290 290 290 290 290 289 289 290 289 289 290 290 290 291 291 292 293 293 292 292 292 292 292 292 293 293 293 293 294 295 294 295
290 290 290 290 290 289 289 289 290 290 290 290 290 290 289 289 289 289 289 289 288 288 288 288 288 288 288 289 289 288 288 289 289 289 289 289 289 290 290 290 290 290 290 290 291 292 291 291 291 291 291 291 291 291 291 292 291 291 291 292 292 293
289 289 288 288 288 288 288 289 289 289 289 289 289 288 288 288 287 288 288 287 287 287 287 287 287 287 287 287 287 287 288 288 288 288 289 289 289 289 289 290 290 290 290 291 291 291 290 290 290 291 291 291 291 291 291 291 291 291 291 291 291 292
288 288 288 288 288 288 288 287 287 287 287 288 287 286 287 286 287 286 286 286 286 286 286 286 286 286 286 285 286 286 286 287 287 288 288 288 288 289 289 289 290 290 290 290 290 290 290 290 291 291 291 291 291 291 291 290 291 291 291 291 291 291
288 288 288 287 287 287 287 287 287 287 287 286 286 285 285 285 286 286 285 285 285 285 284 285 285 285 285 285 285 285 285 285 286 286 287 287 288 288 289 288 289 289 289 289 289 289 289 290 291 290 290 291 291 291 291 291 291 291 291 291 291 292
286 287 287 287 286 286 286 286 286 286 286 285 284 284 284 285 285 285 285 285 284 284 284 284 284 284 284 284 284 284 284 284 285 285 285 286 287 287 287 287 288 288 288 289 289 289 289 289 290 290 290 290 291 291 290 290 291 291 291 291 291 291
286 286 286 286 286 286 285 285 285 284 284 282 282 282 282 283 283 283 283 283 283 283 282 283 283 283 283 283 283 283 284 284 284 284 285 285 285 286 286 286 286 287 288 288 288 288 289 289 290 290 290 290 290 290 290 290 290 290 290 291 291 291
285 285 285 285 285 284 284 283 283 282 281 281 281 281 281 281 281 281 281 280 281 281 281 281 282 282 282 282 282 282 282 283 283 284 284 284 285 285 285 286 286 286 287 287 287 288 288 288 289 289 289 290 290 290 290 290 290 290 289 290 290 290
283 283 284 283 283 283 283 282 282 281 281 280 280 280 280 280 280 280 279 279 279 281 281 281 281 281 282 282 282 282 282 282 282 283 283 283 284 284 284 285 285 286 286 286 287 287 287 287 288 287 288 288 289 289 290 290 290 289 289 289 289 289
279 281 282 282 283 283 282 282 281 281 280 279 279 278 279 279 278 278 277 277 279 280 280 280 280 281 280 281 281 281 281 281 282 282 282 282 282 282 283 284 284 284 285 285 286 285 286 286 287 287 288 288 287 288 289 288 288 289 288 288 288 287
273 274 276 279 283 283 282 282 281 280 279 278 278 277 277 277 277 277 277 277 278 279 279 280 280 279 279 280 280 280 280 281 281 281 281 281 281 282 282 282 283 283 284 284 285 285 285 285 285 286 286 286 286 286 288 288 288 288 288 288 287 287
271 272 274 275 277 282 283 283 281 279 278 278 278 277 276 276 276 275 275 276 277 277 278 279 279 278 278 278 279 279 280 280 281 280 280 280 281 281 281 281 282 282 283 283 283 284 284 284 285 285 285 285 285 285 287 287 287 287 286 286 286 286
269 270 272 274 275 282 284 283 281 279 279 278 277 276 276 275 275 275 275 275 275 276 277 277 278 277 277 278 278 278 279 279 279 279 280 280 280 280 280 280 281 281 281 282 282 283 283 283 284 284 284 284 284 285 285 286 286 285 285 285 285 286
268 269 270 271 273 280 282 281 279 278 277 276 275 275 274 274 274 274 274 274 274 274 275 275 276 276 276 277 277 278 277 277 277 278 278 279 279 280 280 280 280 280 280 281 281 281 282 282 283 283 283 284 284 283 284 285 285 284 285 285 285 285
266 266 268 270 271 275 279 278 278 276 275 275 274 273 273 273 273 273 272 272 272 273 273 274 274 275 275 275 276 276 276 276 276 276 277 278 279 279 279 279 280 279 279 280 281 281 281 282 282 282 282 283 283 282 284 284 284 283 284 284 284 284
265 265 267 268 269 270 272 274 275 274 273 273 272 272 271 271 271 271 271 271 271 272 272 273 273 273 274 275 275 275 275 275 275 275 276 277 277 278 278 278 278 279 279 279 280 280 281 281 281 281 282 282 283 283 283 283 283 283 282 283 283 283
264 264 264 265 267 268 269 271 272 271 270 269 269 269 268 268 268 269 269 270 270 271 271 272 272 272 272 273 273 273 273 274 275 274 275 275 276 276 277 278 278 279 279 279 279 280 280 280 280 281 281 282 282 282 282 282 282 281 281 282 282 283
263 263 263 263 263 265 267 269 269 268 267 267 266 266 266 266 266 267 268 269 269 270 270 271 271 271 271 271 271 271 271 272 273 273 274 274 276 276 277 277 278 278 279 279 279 278 279 279 280 280 281 280 280 281 281 281 281 280 280 281 281 281
262 261 261 260 261 263 265 267 267 266 265 265 265 264 264 264 265 267 267 268 269 269 269 269 269 270 269 270 270 271 271 272 272 272 273 273 275 275 276 276 277 277 278 278 279 279 279 278 279 279 279 279 279 280 280 280 279 279 279 279 279 280
262 260 260 260 260 261 263 264 264 263 263 263 262 262 262 264 265 266 267 267 268 268 268 268 268 268 268 269 269 270 270 271 271 271 271 272 273 274 275 275 276 277 277 277 278 278 278 278 278 278 277 278 279 279 279 279 279 279 278 278 278 279
261 260 260 260 259 260 261 262 262 261 261 261 260 261 262 263 264 265 266 266 266 266 266 267 267 267 267 267 269 269 269 270 270 270 271 272 272 273 274 275 275 276 276 277 277 277 277 277 277 276 276 277 278 278 279 278 278 278 277 277 277 278
258 259 259 259 259 259 259 260 260 260 260 259 259 261 261 262 263 264 264 264 264 265 265 265 265 265 266 266 267 268 268 269 269 269 270 271 272 272 273 273 273 274 275 275 276 277 277 277 277 276 275 275 276 277 278 278 277 278 277 276 276 276
257 258 258 258 258 258 258 258 258 258 258 257 259 259 260 261 262 263 263 263 263 263 264 264 265 265 265 265 266 267 267 267 268 269 269 270 271 272 272 273 272 273 273 273 274 276 276 277 276 275 274 274 275 276 277 277 277 277 276 276 275 276
256 257 257 258 258 258 257 257 256 256 256 257 258 258 259 260 261 262 262 262 263 263 263 264 264 264 264 265 265 265 266 266 267 268 269 269 270 270 270 271 271 271 272 272 273 274 275 275 275 274 274 274 275 275 276 276 276 276 276 275 275 276
256 256 256 257 257 257 257 256 256 255 256 257 257 258 258 259 259 260 261 261 262 262 262 263 263 263 264 264 265 265 266 266 266 266 267 268 269 269 269 269 270 270 271 271 273 273 274 273 273 273 274 274 275 274 275 275 275 275 275 275 275 276
254 255 255 255 256 256 256 256 256 256 256 256 257 257 257 258 258 259 260 260 261 262 262 262 262 263 263 264 264 265 266 267 267 267 267 268 268 269 269 269 270 270 271 271 272 272 271 271 272 272 273 273 273 273 273 274 274 275 275 275 275 275
254 254 254 254 255 256 256 255 255 255 255 256 256 256 256 257 257 258 259 260 261 261 261 261 261 261 263 263 263 264 265 266 267 267 267 267 267 268 268 269 270 270 270 269 270 270 270 270 270 271 271 271 271 272 273 273 273 273 274 274 274 274
253 253 253 254 255 255 255 255 255 255 255 255 255 256 255 256 256 258 258 259 260 260 260 261 261 262 262 263 263 264 265 264 265 267 267 268 269 268 268 269 270 270 269 269 268 268 268 268 269 270 272 271 273 272 272 272 272 273 273 274 275 274
253 253 253 253 254 254 254 254 254 254 255 255 255 255 254 255 256 257 258 258 259 260 260 261 261 261 261 262 263 263 264 265 266 268 267 267 268 269 272 271 269 270 269 268 268 269 267 267 269 271 272 272 272 273 273 273 274 274 273 274 274 273
253 253 252 253 253 254 254 253 254 254 254 254 254 254 254 255 255 257 257 257 258 258 259 260 260 261 261 262 262 262 262 263 264 266 267 267 266 269 270 270 270 270 270 269 267 268 269 269 270 270 271 271 271 272 273 273 273 272 273 273 271 269
252 252 252 253 253 253 253 253 253 253 253 253 254 254 254 254 255 256 257 257 258 258 259 260 260 260 260 261 261 261 261 261 262 264 265 264 265 267 268 268 267 267 268 268 268 266 266 267 268 269 270 270 271 271 271 271 271 271 272 271 270 267
252 252 252 252 252 252 252 252 253 253 253 253 253 253 253 254 254 255 256 257 257 258 259 259 259 259 260 259 259 260 260 260 261 261 263 263 264 265 265 265 265 265 265 266 266 266 266 267 268 268 269 269 270 270 269 270 269 270 270 269 267 266
252 252 252 252 252 252 252 251 252 252 252 252 253 252 253 253 254 255 256 256 257 257 258 258 258 259 259 259 259 259 259 259 259 259 260 260 261 262 263 263 262 262 262 263 264 264 265 266 266 267 267 267 268 268 268 267 266 268 268 267 264 264
252 251 251 251 251 251 251 251 252 252 252 252 252 252 252 253 254 255 255 255 256 257 258 258 258 258 258 258 258 258 258 258 259 259 259 258 258 258 259 259 260 260 260 259 260 262 263 264 265 265 266 266 267 267 267 265 264 263 263 263 263 262
251 251 251 251 251 251 250 251 252 252 252 252 251 251 252 253 254 255 256 256 256 257 257 257 257 257 257 257 257 257 257 258 258 258 258 257 257 257 257 258 258 258 259 259 259 259 261 262 263 263 264 264 265 265 264 261 261 261 261 261 261 261
Wind_Speed
9 9 9 9 9 9 9 8 7 7 7 8 9 10 9 9 7 8 8 8 8 8 10 11 10 10 9 9 9 9 9 9 7 8 7 6 5 5 5 5 5 5 4 5 5 5 6 6 6 5 5 5 5 5 5 6 5 5 6 6 6 6
8 9 10 11 11 10 9 10 8 9 8 9 9 9 9 9 9 8 9 7 8 9 9 9 9 9 9 9 8 8 9 9 8 8 7 6 5 5 5 5 5 5 5 5 5 5 6 6 6 6 6 6 6 6 6 6 6 6 6 6 6 5
7 8 8 8 8 8 8 9 10 10 9 9 9 12 11 10 8 9 8 8 8 9 9 9 9 9 8 9 9 10 9 8 7 7 7 6 6 5 5 5 5 5 6 6 6 6 6 7 7 6 6 7 7 6 6 7 7 7 6 5 7 6
7 7 6 7 8 8 9 8 9 10 10 10 9 9 8 10 8 8 8 7 8 9 9 9 8 8 8 10 9 9 8 7 7 7 7 7 6 6 6 6 5 5 5 6 7 7 7 8 8 7 6 7 7 7 5 6 7 7 7 6 7 7
7 7 8 8 8 8 9 8 8 9 10 10 8 9 8 7 8 7 7 8 8 9 9 9 8 8 9 10 8 9 8 7 7 5 6 6 6 5 5 5 6 6 6 6 7 7 8 8 7 7 7 7 7 7 6 6 7 7 7 7 7 7
6 7 8 8 7 8 8 8 7 7 7 8 8 9 9 8 7 7 7 8 9 9 9 9 8 9 8 9 7 9 7 7 6 6 6 6 5 6 6 6 5 6 6 7 7 8 7 7 7 7 7 7 7 6 7 6 6 6 6 6 6 7
5 7 7 7 7 6 7 7 7 8 7 7 7 8 7 7 6 7 7 9 10 9 9 9 8 9 9 9 8 8 8 7 6 6 6 6 6 6 6 5 5 6 6 6 7 7 7 7 7 7 7 6 6 6 6 6 5 5 5 6 6 6
6 7 6 5 5 6 6 6 7 7 7 7 6 7 7 7 6 7 8 7 9 9 9 8 8 9 9 9 8 8 7 6 6 6 6 6 6 6 6 6 5 6 7 7 7 7 7 7 7 7 6 6 6 5 5 5 5 5 5 5 5 5
7 7 6 4 5 5 5 6 6 6 7 7 6 6 6 6 7 7 8 8 8 8 8 8 8 7 7 7 7 6 6 7 6 6 6 5 6 6 6 6 7 6 6 7 7 7 7 7 6 6 6 5 5 5 5 5 5 4 4 4 5 5
6 7 6 5 4 5 5 6 6 6 6 6 6 6 6 5 6 7 8 8 8 8 8 7 7 7 7 7 6 6 6 6 6 6 6 6 6 6 6 6 6 6 6 6 7 7 6 6 6 6 5 5 4 4 4 4 4 4 4 4 4 5
5 6 6 5 5 6 6 6 7 7 7 7 6 6 6 5 7 8 8 7 8 7 7 7 6 6 7 7 7 7 7 7 6 6 5 5 6 5 5 5 6 7 7 7 7 7 7 7 6 5 4 4 4 3 3 3 4 4 4 4 4 4
7 6 7 7 6 6 6 6 6 6 6 6 6 6 5 6 7 8 8 8 7 7 7 7 7 6 6 7 7 6 6 6 5 5 6 6 5 5 5 5 5 6 7 7 7 7 7 7 6 5 7 7 4 3 2 2 3 3 3 3 4 4
11 8 7 6 7 6 6 6 7 7 7 6 6 6 5 6 8 8 9 9 7 7 7 7 7 7 7 6 6 6 6 5 5 5 5 5 5 5 4 5 6 6 6 6 7 7 7 6 5 7 8 8 7 3 2 2 2 2 2 3 3 3
14 13 11 8 5 7 7 7 6 7 7 6 6 6 6 7 8 9 10 9 8 7 7 7 7 8 7 7 6 5 5 4 5 5 5 5 5 4 4 5 5 5 5 5 6 7 7 6 7 7 7 7 7 6 2 2 2 2 2 3 3 3
13 13 12 10 9 4 7 8 8 7 6 7 6 6 6 7 8 9 10 9 8 8 7 7 7 7 7 6 6 5 4 5 5 5 5 6 4 4 5 5 5 5 5 5 6 6 6 6 6 7 7 7 7 5 2 2 2 2 3 3 3 3
12 12 12 11 10 6 6 8 8 7 6 6 6 7 7 8 9 9 9 8 8 8 7 7 7 7 7 6 6 6 6 7 7 6 5 4 4 5 5 6 6 5 5 4 5 5 5 6 6 7 7 7 7 5 3 3 2 2 2 2 3 3
15 15 14 13 12 6 8 8 8 7 6 6 7 7 8 9 9 10 9 9 8 8 7 7 7 7 6 6 6 7 8 8 7 7 6 5 5 5 5 5 5 5 4 4 4 4 5 6 7 7 7 7 6 5 3 3 2 1 1 1 2 3
15 15 14 12 12 9 8 7 6 7 8 7 8 8 9 9 10 10 9 9 8 8 8 7 7 7 7 6 7 7 8 7 7 7 6 5 5 5 4 4 5 5 5 4 4 4 5 6 8 8 8 7 6 3 2 2 1 1 1 1 2 3
14 15 13 12 12 12 10 8 7 7 8 9 9 10 10 11 11 10 9 9 8 8 8 8 7 7 7 7 7 7 7 7 6 6 5 5 5 5 5 4 4 4 4 4 4 4 4 5 7 8 8 8 8 3 2 2 1 1 1 2 2 2
14 15 13 13 13 13 11 10 8 8 10 10 10 10 11 12 11 9 9 9 8 8 8 8 8 8 8 8 8 8 7 7 6 6 6 5 5 5 5 4 3 4 4 5 5 4 3 5 7 9 9 10 11 6 3 2 2 2 2 2 2 2
14 14 14 14 15 15 13 11 10 10 11 10 10 10 11 11 10 10 9 9 8 8 7 7 8 8 8 8 7 7 7 7 6 6 5 5 4 4 4 4 3 4 4 5 5 6 5 4 6 10 11 12 12 8 4 3 2 3 3 4 3 3
14 16 16 16 15 14 14 11 10 12 11 10 10 11 11 10 9 8 7 7 7 7 7 7 7 7 7 7 6 6 5 4 4 5 4 4 4 4 4 4 4 4 4 4 5 5 5 5 5 9 13 13 12 12 6 4 4 5 6 5 5 5
12 13 14 12 13 13 12 10 10 11 10 10 11 12 11 9 8 7 6 6 6 7 7 6 7 7 7 6 5 4 5 5 4 4 4 4 4 4 4 5 4 4 4 5 5 5 6 6 5 7 13 13 13 13 10 5 6 6 6 6 6 5
13 13 13 13 13 12 11 10 10 10 10 11 13 11 9 8 7 7 6 6 6 6 6 7 6 5 5 5 4 4 4 5 5 5 5 4 4 6 6 6 5 4 4 4 4 5 4 6 8 7 10 12 12 12 12 7 6 8 7 7 6 6
13 13 13 12 13 12 12 12 12 11 11 13 13 10 9 8 7 7 6 6 6 6 6 6 7 5 4 4 5 5 6 5 6 6 6 6 5 6 6 6 6 5 4 4 3 3 4 4 4 9 8 11 12 11 10 11 8 11 7 6 7 7
13 12 12 12 12 12 12 12 11 11 12 13 10 9 9 8 7 6 6 6 6 7 6 6 6 6 5 6 6 6 7 7 6 6 6 6 6 5 5 5 5 4 4 4 4 3 3 4 4 5 9 9 11 10 11 11 11 10 7 7 6 7
14 13 13 12 15 13 13 12 12 12 13 11 10 10 9 8 7 7 7 7 7 8 7 7 7 7 6 6 6 6 6 7 7 6 6 6 5 5 5 4 5 4 4 4 3 3 4 4 5 5 6 9 9 10 10 11 11 10 11 7 6 7
13 13 14 14 15 14 13 13 12 14 12 10 10 10 10 9 8 8 8 7 7 8 7 6 6 7 7 7 5 6 6 6 6 6 5 5 5 5 5 4 4 4 4 4 4 4 4 5 5 6 6 7 8 8 10 12 10 10 11 9 8 10
12 14 14 14 14 13 13 13 12 12 11 11 12 11 11 9 9 8 7 6 5 5 5 6 5 5 6 6 5 5 5 5 5 5 5 5 5 4 4 4 4 3 3 3 4 4 5 5 5 6 6 6 7 7 8 8 8 10 9 7 7 8
12 12 12 11 12 11 11 11 11 11 12 11 11 10 9 7 7 6 5 5 4 4 5 5 7 5 4 5 5 4 5 5 4 4 4 4 4 4 4 4 3 3 3 3 4 4 4 4 4 5 6 7 8 8 8 7 7 7 7 7 7 8
10 11 10 9 9 9 8 9 8 9 9 9 8 9 8 6 6 5 5 5 5 5 5 5 5 4 3 3 3 4 4 4 4 3 4 4 3 3 4 3 2 3 3 3 4 4 4 4 4 4 9 9 11 9 8 7 7 7 7 8 12 10
9 10 9 8 8 8 7 8 8 8 8 9 8 8 8 8 6 6 6 6 6 6 5 5 5 5 4 4 3 3 3 4 7 6 4 2 7 9 9 9 5 4 3 3 3 3 3 4 5 11 14 13 13 12 12 11 11 11 9 11 13 7
8 7 7 6 6 6 6 6 7 7 8 9 8 8 8 8 6 5 5 6 6 7 6 5 5 5 4 4 4 3 3 2 3 7 8 7 8 8 9 11 11 10 8 5 3 5 7 9 11 12 13 13 12 12 12 11 11 11 11 11 7 4
7 7 7 6 6 6 5 5 6 7 8 8 8 8 7 7 5 5 5 5 5 6 6 5 5 5 5 5 5 4 4 3 2 3 6 7 7 8 10 11 10 9 7 8 7 6 4 7 9 12 12 12 12 12 12 11 11 11 10 9 6 2
7 7 6 6 6 6 5 6 7 8 9 9 9 8 7 7 5 5 4 5 5 5 5 5 5 5 5 5 5 5 4 4 4 3 2 4 5 5 8 10 10 10 9 8 9 9 8 8 10 11 11 11 11 12 11 11 10 8 9 7 4 2
6 7 6 7 7 6 6 6 7 9 9 9 9 8 7 6 5 5 5 5 5 5 5 5 5 5 4 4 4 4 4 4 4 3 3 3 2 1 1 3 7 9 10 9 10 10 11 11 11 12 11 12 12 12 12 9 5 5 8 8 4 4
6 6 6 7 7 7 7 7 8 9 10 10 9 8 7 7 6 4 5 7 6 4 4 4 4 4 4 4 4 3 3 3 3 3 3 3 3 3 3 4 5 5 9 9 9 12 13 13 13 13 12 13 13 13 13 6 3 3 4 4 4 4
4 5 5 6 6 6 6 6 8 9 9 9 8 7 7 7 6 5 4 4 5 5 4 4 4 4 4 3 3 3 3 3 3 3 2 2 2 3 3 3 4 5 6 8 7 11 13 14 13 13 12 12 13 13 12 5 5 4 4 4 4 4
Wind_Direction
192 185 176 171 164 157 150 141 136 134 127 127 131 130 127 125 122 122 120 121 120 122 123 122 120 118 117 116 115 114 107 101 96 97 101 103 100 97 95 92 87 84 78 74 72 72 71 70 68 64 60 60 65 54 52 40 39 50 51 42 38 34
196 184 174 168 163 155 148 143 140 140 135 129 122 117 118 120 118 119 115 112 112 115 113 108 111 112 114 118 116 106 102 103 104 105 102 102 98 96 94 93 88 83 83 77 77 76 75 75 72 66 62 62 58 51 46 36 39 49 49 44 40 38
189 177 169 156 146 141 143 146 146 141 136 133 134 134 134 129 127 123 120 118 115 116 113 114 110 107 105 103 99 100 99 101 104 103 107 102 93 96 94 93 91 90 87 83 78 77 78 77 69 60 60 60 58 51 46 39 40 43 46 40 39 38
184 169 149 143 143 149 149 147 142 142 142 141 138 133 132 133 130 127 125 119 119 114 112 108 103 103 103 101 97 98 100 100 100 107 104 100 96 92 90 88 84 85 85 82 77 78 78 74 68 64 65 64 60 55 44 38 36 38 37 34 31 26
174 165 157 154 152 150 146 143 144 144 141 139 139 137 132 127 124 121 118 118 116 112 110 106 101 101 100 98 98 98 97 96 97 97 101 100 100 93 89 89 89 86 81 77 74 76 72 70 69 65 67 65 63 61 57 49 45 42 37 36 30 24
153 148 153 154 152 148 148 144 139 134 134 134 132 128 126 121 121 121 117 112 107 106 102 99 103 100 96 94 91 94 92 94 92 92 92 94 93 91 82 82 85 85 81 80 76 74 72 70 69 70 65 63 62 61 59 54 51 47 44 40 33 26
163 162 156 155 148 146 143 140 136 134 130 126 120 117 117 116 115 113 110 111 108 103 101 100 98 97 92 91 91 90 90 88 89 84 86 92 89 90 92 85 82 84 83 83 84 82 77 75 73 71 69 65 63 63 62 60 56 51 47 42 37 30
181 182 168 135 138 136 132 128 126 122 118 111 109 116 116 112 110 108 107 105 103 101 99 99 95 93 95 96 93 92 89 89 87 90 84 88 94 91 86 87 83 82 86 85 86 84 83 80 75 71 69 65 63 63 61 59 59 56 54 48 38 34
169 168 158 115 116 115 117 118 113 109 107 102 92 94 98 100 105 103 101 97 97 96 91 88 84 88 89 88 93 95 93 90 90 91 91 88 90 91 90 87 91 87 92 93 91 88 85 81 77 74 70 68 65 63 60 56 55 53 54 41 37 34
157 152 139 103 107 98 86 83 85 91 93 90 78 76 81 78 91 87 85 87 83 83 82 77 78 78 78 81 82 83 84 85 84 83 84 84 83 84 87 91 94 94 94 96 95 90 87 82 77 74 69 65 65 63 62 58 48 51 48 42 38 31
138 134 117 99 89 88 84 82 77 72 73 75 81 81 67 68 79 77 74 71 74 76 79 80 73 74 77 79 80 78 76 75 74 76 77 77 80 79 84 90 97 100 100 98 100 97 87 79 69 66 62 69 65 62 64 61 51 47 44 38 34 26
60 71 80 81 79 74 77 80 79 81 85 82 77 76 69 76 74 79 73 70 70 73 77 78 76 76 74 72 74 75 77 77 75 73 75 77 78 81 83 87 89 93 100 104 101 98 88 80 77 54 56 51 45 60 65 67 59 46 40 34 25 21
29 42 56 68 74 80 79 76 78 76 73 68 69 69 68 81 84 80 78 74 68 68 71 75 75 76 72 72 75 75 80 81 83 82 81 82 82 83 80 86 86 86 91 97 102 99 90 82 78 65 68 60 43 30 65 70 66 55 40 34 20 14
7 10 8 18 73 94 92 92 88 81 79 75 75 77 70 76 81 81 78 75 70 63 64 71 77 77 75 75 75 79 80 87 90 91 89 88 83 76 78 78 80 81 85 91 96 95 91 86 75 69 57 46 38 18 22 67 56 41 34 28 19 13
355 355 358 359 354 59 107 106 95 89 95 92 94 94 84 79 78 78 74 69 70 66 63 68 76 78 75 70 72 73 75 78 76 71 70 68 65 71 71 69 72 70 70 83 92 93 90 83 70 67 56 42 32 29 20 65 37 34 34 21 12 4
352 349 351 349 344 11 92 99 103 106 108 111 112 102 93 88 78 77 74 68 62 61 61 59 62 67 67 68 68 68 64 62 58 53 54 57 58 66 68 64 64 61 58 61 77 86 82 77 63 57 51 40 33 42 39 60 41 38 25 14 360 354
349 349 350 354 342 7 85 85 97 106 98 99 91 83 86 81 80 71 66 62 55 52 52 56 56 56 55 56 60 62 59 55 51 46 39 38 39 43 50 53 59 53 50 52 61 79 77 67 55 47 42 37 39 48 36 54 30 28 12 358 3 345
348 347 343 346 352 6 51 77 90 94 89 76 75 73 69 71 69 64 59 57 49 46 42 47 53 52 49 49 56 59 56 53 48 43 32 37 44 45 48 51 54 53 51 47 50 72 78 65 47 40 37 33 38 42 34 38 10 13 345 357 3 342
350 349 345 356 11 11 14 29 56 74 74 65 57 58 56 57 57 50 49 49 44 42 38 36 43 47 45 43 47 50 48 46 46 45 28 41 41 47 41 42 48 48 52 50 49 57 71 62 40 35 32 30 23 13 26 8 5 351 340 342 335 307
354 354 354 359 14 12 9 19 43 55 56 53 49 52 51 51 48 41 42 42 38 38 38 36 37 41 42 41 39 36 35 34 37 35 24 34 29 39 34 23 45 53 55 52 51 36 55 58 40 34 33 30 25 13 11 359 4 352 350 334 329 316
357 356 358 7 15 3 4 19 36 52 52 47 48 50 51 45 38 32 32 34 34 36 37 37 39 40 40 43 40 37 33 29 27 21 20 24 29 34 37 22 32 43 56 54 58 42 43 49 42 33 31 28 24 15 6 9 1 354 354 335 329 320
2 5 8 8 4 356 2 14 35 47 49 46 46 47 44 36 30 28 31 34 33 36 40 40 43 44 43 41 43 42 42 37 36 30 30 32 30 29 31 28 31 35 46 49 49 47 39 34 40 33 25 23 21 19 15 14 9 358 345 340 333 325
12 10 7 3 359 360 3 17 35 44 43 44 46 40 31 22 20 24 29 32 37 41 43 42 42 47 46 40 37 45 48 39 36 33 37 39 37 36 41 36 32 34 40 44 40 43 44 33 23 29 20 15 16 15 17 14 12 356 343 331 327 326
4 8 7 8 6 6 8 20 42 44 41 43 41 29 16 12 16 21 28 33 35 37 39 41 38 43 46 37 37 52 56 46 41 36 36 37 34 36 36 31 27 26 29 32 36 36 37 44 36 13 12 10 9 13 15 13 2 355 338 332 326 326
0 3 7 3 8 10 11 21 37 37 38 41 29 14 9 7 15 21 27 31 35 37 36 38 38 38 37 32 35 46 49 37 37 35 38 36 38 39 37 34 23 18 18 13 21 26 27 22 31 19 8 3 1 4 5 5 356 349 347 334 323 323
357 357 4 7 10 15 14 18 26 30 37 31 11 5 2 7 11 16 27 30 32 30 29 26 32 34 33 31 31 41 45 35 31 36 35 30 31 31 33 29 22 16 13 4 360 10 13 7 359 359 5 355 351 353 355 356 350 350 341 330 315 315
354 354 0 8 10 14 17 17 21 23 30 15 7 5 6 6 13 24 26 29 28 30 27 32 29 25 26 26 33 41 44 40 36 43 34 36 36 38 35 25 24 12 0 356 346 348 350 359 353 342 351 346 342 345 346 344 340 339 335 326 311 310
356 359 359 5 9 10 14 15 17 20 12 3 5 5 4 4 10 21 26 27 26 29 23 21 31 36 32 30 35 46 53 58 53 55 45 45 45 43 40 28 24 8 356 346 334 336 343 354 340 339 341 341 343 340 336 333 332 329 326 319 309 309
359 359 359 1 5 7 9 10 13 11 4 2 2 2 0 4 11 16 19 14 18 21 31 38 30 28 25 24 28 37 48 60 63 63 64 60 54 46 41 30 13 0 348 339 334 346 339 337 335 339 339 346 342 335 332 331 330 327 326 326 324 323
0 356 359 359 360 1 6 8 7 2 1 359 358 357 355 3 7 9 13 13 18 29 27 37 38 34 42 32 30 31 61 58 50 59 64 64 57 48 24 4 355 357 350 340 333 331 326 321 327 331 340 341 334 328 327 325 324 325 326 324 322 320
356 356 356 356 355 354 3 3 3 357 1 358 354 353 353 356 358 8 18 19 24 29 31 36 41 35 28 36 54 56 60 45 15 31 71 61 66 7 300 295 9 11 336 323 318 315 312 307 316 325 337 326 322 322 320 322 321 321 320 317 318 318
354 352 351 351 350 349 355 355 1 359 2 359 354 357 355 355 354 11 19 19 22 22 26 33 35 36 26 28 28 48 74 67 41 46 61 59 12 1 37 53 50 30 11 334 306 319 318 314 317 326 327 323 323 320 317 316 317 319 321 320 326 325
345 346 346 347 348 343 351 354 359 359 1 2 357 0 356 357 4 19 19 18 24 16 10 24 29 28 31 32 27 20 29 48 54 47 45 39 14 21 42 41 37 30 21 15 345 323 326 321 322 324 326 326 324 324 323 326 329 329 326 329 335 322
340 346 339 345 343 343 349 356 3 5 2 2 357 359 356 2 8 21 20 20 13 15 16 25 24 20 24 23 28 25 15 16 39 86 64 41 17 34 44 42 37 27 14 13 11 0 332 326 328 331 333 333 333 331 333 336 334 333 339 343 340 326
334 340 334 339 343 346 356 1 8 8 3 2 358 358 355 357 6 10 22 21 17 20 25 25 26 22 22 18 20 23 23 20 17 18 16 47 41 34 45 40 32 23 15 12 7 5 352 341 342 342 346 345 341 345 344 338 335 346 1 7 20 11
334 339 341 345 348 354 358 4 9 9 4 1 358 353 345 348 355 14 25 23 17 27 26 28 21 20 17 18 17 16 23 20 25 7 353 347 6 69 69 41 24 16 9 6 3 1 356 351 352 351 354 353 353 354 348 341 336 7 27 36 23 10
337 343 347 348 346 354 358 5 11 6 3 1 355 345 340 353 358 8 26 26 22 29 32 27 21 14 9 8 9 13 15 14 6 10 14 14 9 354 348 334 340 354 10 359 353 353 352 353 356 356 357 359 360 359 354 351 359 7 10 23 24 11
344 347 352 353 353 354 355 8 12 5 1 358 348 339 345 354 355 6 13 21 25 27 31 31 24 18 7 1 355 1 360 9 13 17 17 24 13 359 339 323 330 325 325 344 351 356 351 351 353 353 356 360 3 6 9 18 9 6 357 1 353 352